This is the latest recevied weather packets stored in our database for station/object KD8FRE. If no packets are shown the sender has not sent any weather packets the latest 1 day(s).
| Time | Temp. | Humidity | Pressure | Rain* | Wind** | Luminosity | Snow |
|---|---|---|---|---|---|---|---|
| 1778010188 | 12.22° C | 59% | 1007.9 hPa | 0 mm | 3.58 m/s, 274° | 122 W/m² | - |
| 1778009883 | 12.22° C | 59% | 1008.1 hPa | 0 mm | 2.24 m/s, 269° | 109 W/m² | - |
| 1778009581 | 12.22° C | 58% | 1008 hPa | 0 mm | 3.13 m/s, 267° | 100 W/m² | - |
| 1778009279 | 12.22° C | 58% | 1008.1 hPa | 0 mm | 2.68 m/s, 270° | 90 W/m² | - |
| 1778008976 | 12.22° C | 59% | 1008.1 hPa | 0 mm | 1.79 m/s, 301° | 103 W/m² | - |
| 1778008674 | 12.22° C | 59% | 1008.1 hPa | 0 mm | 1.79 m/s, 303° | 108 W/m² | - |
| 1778008372 | 12.22° C | 60% | 1008.2 hPa | 0 mm | 3.13 m/s, 266° | 143 W/m² | - |
| 1778008068 | 12.22° C | 59% | 1008 hPa | 0 mm | 2.24 m/s, 197° | 143 W/m² | - |
| 1778007763 | 12.22° C | 58% | 1008.1 hPa | 0 mm | 3.13 m/s, 273° | 100 W/m² | - |
| 1778007460 | 12.22° C | 58% | 1008.1 hPa | 0 mm | 2.68 m/s, 276° | 91 W/m² | - |
| 1778007157 | 12.22° C | 58% | 1008.2 hPa | 0 mm | 2.68 m/s, 272° | 94 W/m² | - |
| 1778006852 | 12.22° C | 57% | 1008.1 hPa | 0 mm | 2.68 m/s, 296° | 103 W/m² | - |
| 1778006550 | 12.22° C | 58% | 1007.9 hPa | 0 mm | 2.24 m/s, 293° | 124 W/m² | - |
| 1778006247 | 12.22° C | 57% | 1008 hPa | 0 mm | 4.02 m/s, 289° | 108 W/m² | - |
| 1778005951 | 12.22° C | 55% | 1007.8 hPa | 0 mm | 4.02 m/s, 304° | 140 W/m² | - |
| 1778005640 | 12.22° C | 55% | 1007.8 hPa | 0 mm | 3.13 m/s, 290° | 150 W/m² | - |
| 1778005338 | 12.22° C | 54% | 1007.8 hPa | 0 mm | 3.13 m/s, 265° | 184 W/m² | - |
| 1778005034 | 12.22° C | 52% | 1007.6 hPa | 0 mm | 4.02 m/s, 274° | 267 W/m² | - |
| 1778004732 | 12.22° C | 53% | 1007.4 hPa | 0 mm | 1.79 m/s, 264° | 221 W/m² | - |
| 1778004428 | 12.22° C | 54% | 1007.4 hPa | 0 mm | 3.13 m/s, 279° | 265 W/m² | - |
| 1778004125 | 12.22° C | 55% | 1007.2 hPa | 0 mm | 4.47 m/s, 280° | 236 W/m² | - |
| 1778003820 | 12.22° C | 56% | 1007.1 hPa | 0 mm | 2.24 m/s, 199° | 252 W/m² | - |
| 1778003517 | 12.22° C | 56% | 1007.3 hPa | 0 mm | 2.68 m/s, 262° | 273 W/m² | - |
| 1778003214 | 12.22° C | 55% | 1007.3 hPa | 0 mm | 2.24 m/s, 293° | 275 W/m² | - |
| 1778002910 | 12.22° C | 56% | 1007.1 hPa | 0 mm | 4.47 m/s, 289° | 231 W/m² | - |
* Rain latest hour (hover to see other rain measurements)
** Current wind speed in m/s (hover to see current wind gust speed)